Tracking 27405 objects as of 1-Jun-2023
HD Live streaming from Space Station
objects crossing your sky now

FREGAT DEB

Track FREGAT DEB now!
10-day predictions


NORAD ID: 46237
Int'l Code: 2011-037JX
Perigee: 439.1 km
Apogee: 2,352.8 km
Inclination: 51.4 °
Period: 113.5 minutes
Semi major axis: 7766 km
RCS: Unknown
Launch date: July 18, 2011
Source: Commonwealth of Independent States (former USSR) (CIS)
Launch site: TYURATAM MISSILE AND SPACE COMPLEX (TTMTR)

Note: This is SATELLITE DEBRIS
Your satellite tracking list
Your tracking list is empty




NASA's NSSDC Master Catalog

Two Line Element Set (TLE):
1 46237U 11037JX  23151.55090259  .00319822  00000-0  50984-1 0  9993
2 46237  51.3952 286.8715 1231962 135.6572 234.9906 12.68306979118890
Source of the keplerian elements: AFSPC